Location: City of Moscow
(46.7306°N, 116.9989°W)
Time: 02:40:13
(UTC+00:00)

Tiangong - Pass Details

Date: 16 February 2026
Orbit: 382 x 391 km, 41.5° (Epoch: 6 March)

Event Time Altitude Azimuth Distance (km) Brightness Sun altitude
Rises 02:09:33 0° 249° (WSW) 2,254 3.6 -10.2°
Reaches altitude 10° 02:11:45 10° 238° (WSW) 1,399 1.8 -10.6°
Maximum altitude 02:14:34 30° 176° (S) 717 -0.8 -11.1°
Enters shadow 02:16:42 15° 119° (ESE) 1,158 -0.2 -11.5°
